Location: Detroit
(42.3310°N, 83.0460°W)
Time: 02:56:31
(UTC-04:00)

A-11 Canister half - Visible Passes

Search period start: 03 October 2023 00:00
Search period end: 13 October 2023 00:00
Orbit: 1524 x 1684 km, 47.3° (Epoch: 02 October)

Date Brightness Start Highest point End Pass type
(mag) Time Alt. Az. Time Alt. Az. Time Alt. Az.
03 Oct 10.5 21:18:45 10° WNW 21:26:19 27° SW 21:34:05 10° S visible
04 Oct 10.5 20:56:54 10° WNW 21:04:39 28° SW 21:12:35 10° S visible
05 Oct 10.5 20:35:05 10° WNW 20:42:58 30° SW 20:51:04 10° S visible
06 Oct 10.5 20:13:16 10° WNW 20:21:18 32° SW 20:29:33 10° S visible
07 Oct 10.5 19:51:28 10° WNW 19:59:37 33° SW 20:08:01 10° SSE visible
08 Oct 10.5 19:29:40 10° WNW 19:37:57 35° SW 19:46:27 10° SSE visible
